Wind_Speed
9 20 25 29 30 31 29 26 24 23 22 20 18 16 14 11 9 6 4 3 2 2 2 3 4 5 7 9 10 8 8 12 14 6 3 1 4 3 5 4 3 4 9
7 14 23 29 33 33 30 28 25 24 21 20 19 16 15 11 9 7 5 4 3 2 2 2 4 5 6 7 9 10 8 9 14 10 3 3 2 1 4 1 1 2 6
11 9 16 22 27 36 37 33 28 26 22 19 17 13 14 9 10 9 7 5 3 3 2 2 3 4 6 7 9 10 10 10 9 10 6 3 2 6 3 2 2 2 8
10 9 15 19 27 27 35 33 30 26 24 20 19 17 18 13 11 10 8 6 4 3 2 2 3 4 5 6 8 8 9 9 10 5 8 5 2 1 4 3 5 8 20
12 12 16 19 22 29 37 33 27 26 22 21 18 16 15 12 8 9 9 7 5 4 3 2 3 4 5 6 6 7 7 7 7 7 6 4 5 2 1 4 9 26 24
8 8 17 24 24 26 32 35 26 25 21 19 17 14 13 12 10 11 11 8 6 5 3 2 3 4 4 5 6 6 6 6 6 5 6 5 3 5 3 2 8 17 26
8 9 13 19 24 27 31 28 29 24 20 18 15 13 11 10 10 10 9 8 7 5 3 3 3 3 4 4 5 6 6 6 7 7 7 7 8 9 12 9 11 7 14
8 9 12 18 22 28 30 28 27 23 19 16 13 11 10 10 9 8 8 7 6 5 5 3 2 2 3 4 5 5 6 6 7 7 8 10 11 11 13 12 14 8 7
5 9 11 17 22 26 28 27 24 20 17 15 13 12 11 11 10 10 9 9 8 7 5 3 3 3 3 4 5 6 6 7 8 9 10 11 13 14 16 16 16 10 6
6 7 10 17 21 24 23 22 20 19 17 15 14 13 12 12 12 11 11 10 9 7 6 5 4 4 5 5 6 7 8 9 10 11 12 14 16 16 16 18 19 20 17
6 6 9 17 21 21 20 19 19 19 18 16 16 15 15 14 14 13 13 11 9 8 6 6 5 5 6 7 7 9 11 12 13 13 14 16 17 18 20 22 22 23 24
6 6 11 17 18 18 18 19 19 19 18 18 18 18 18 17 16 15 13 11 10 8 7 5 4 5 7 8 10 11 12 13 15 16 17 19 20 21 23 23 23 25 25
7 6 9 12 17 17 18 19 20 20 20 22 22 21 20 18 16 15 12 10 8 6 3 4 6 8 10 11 11 12 13 14 14 15 16 18 20 22 22 22 24 26 25
6 5 6 9 14 17 19 21 22 23 25 25 24 22 19 17 15 13 9 7 4 3 4 6 7 9 11 12 12 13 13 13 14 15 16 18 18 19 20 22 22 23 24
6 6 6 7 16 19 21 25 26 27 27 25 22 20 18 15 12 9 6 4 3 4 5 7 8 11 12 12 12 12 13 14 16 18 18 18 18 17 18 20 24 26 25
7 6 7 12 17 24 26 28 28 26 24 23 21 18 15 12 9 6 4 3 4 5 7 9 12 12 12 12 10 11 13 15 16 19 19 20 20 19 19 21 21 21 23
9 10 10 15 22 26 30 29 26 24 22 21 18 15 11 8 6 3 3 4 6 7 9 11 11 12 13 12 12 13 15 16 18 18 20 22 20 19 20 22 21 22 22
11 10 15 20 25 27 26 26 24 22 20 18 15 11 8 5 3 2 4 5 7 9 11 11 11 13 14 13 13 15 17 18 18 19 20 21 21 20 19 21 21 23 25
14 19 24 28 27 28 27 25 22 20 19 16 12 8 5 2 2 4 5 7 9 10 10 11 12 15 15 14 15 16 18 19 20 20 20 20 21 23 18 19 21 25 26
21 25 28 30 30 29 27 25 21 19 17 13 9 5 2 1 3 5 7 8 9 10 12 15 14 14 16 16 17 17 19 21 23 23 22 20 20 19 20 21 24 26 28
23 27 29 28 30 28 26 23 20 17 14 10 6 3 0 3 5 6 8 8 9 13 14 14 14 14 15 16 17 17 20 22 25 25 24 25 23 22 23 24 24 23 29
21 26 25 25 27 25 23 20 17 14 11 7 4 1 2 4 6 9 8 9 11 13 14 14 18 15 14 15 17 18 19 21 23 26 27 28 25 23 24 24 24 28 27
21 26 28 28 23 22 21 19 16 13 9 5 1 1 3 5 6 7 9 10 13 13 14 18 19 19 18 19 19 19 19 20 23 26 27 24 21 20 22 27 23 22 22
21 25 28 23 21 18 16 14 13 10 6 3 2 3 5 5 7 8 9 12 14 14 17 19 18 20 19 20 20 20 22 22 24 23 21 19 19 24 23 23 22 22 22
20 25 23 22 22 17 14 12 10 7 5 3 3 5 7 9 10 10 12 13 13 14 18 18 19 20 18 19 19 21 22 20 20 25 18 21 23 22 21 20 20 21 22
22 21 22 24 20 16 13 10 8 6 5 4 5 6 9 10 11 13 16 13 14 15 15 17 18 20 20 21 21 22 23 23 23 20 20 20 19 18 18 19 19 20 21
Wind_Direction
200 197 205 203 197 190 187 188 184 186 182 177 173 172 174 179 177 175 168 165 149 132 109 76 69 57 47 45 39 34 29 27 22 20 355 302 243 279 301 305 349 10 2
194 183 197 193 193 187 189 187 190 191 190 189 183 184 181 185 187 186 182 171 158 141 113 86 65 56 49 44 38 36 37 30 28 24 11 6 357 350 356 133 339 353 25
199 188 192 194 187 184 187 187 192 194 192 191 187 184 182 183 191 191 189 179 162 146 126 88 62 51 44 41 37 35 35 28 32 34 39 17 318 328 338 280 360 359 335
193 169 177 191 191 188 189 188 188 194 189 194 197 198 195 191 204 204 194 180 161 152 132 83 60 47 43 40 36 31 32 28 26 32 24 19 334 15 329 334 306 313 324
187 176 177 187 190 193 188 187 182 192 190 194 202 202 201 202 193 198 189 178 171 165 137 93 57 43 40 37 32 29 27 25 22 21 5 5 343 34 223 287 307 314 317
191 168 163 171 179 193 190 178 175 188 191 192 193 198 202 210 197 183 179 184 178 166 142 95 63 45 36 28 25 23 17 15 13 5 358 353 336 319 313 283 298 306 315
165 151 147 155 167 179 187 175 172 180 184 188 197 202 202 202 186 181 186 187 182 170 161 122 58 42 32 21 16 14 13 8 3 354 345 337 328 318 313 297 290 273 303
158 159 154 157 163 175 179 174 173 172 178 183 187 187 189 188 185 180 176 182 170 155 150 131 60 37 26 13 5 7 7 1 353 350 344 332 330 326 323 315 315 308 282
126 133 128 141 154 167 174 172 167 168 173 176 174 169 169 177 166 157 150 145 141 138 130 102 73 55 31 10 7 9 7 359 353 347 340 331 327 326 324 325 331 312 311
105 109 118 134 156 166 164 164 167 169 167 164 162 156 160 157 148 142 138 135 131 127 116 99 79 66 51 32 15 8 360 348 343 337 329 326 327 325 324 325 329 331 312
118 116 116 135 145 149 155 159 163 163 160 159 155 152 146 141 138 136 131 126 121 113 103 87 70 48 26 9 357 352 344 336 332 329 327 324 324 318 319 319 321 324 323
131 125 127 136 144 150 156 160 158 158 158 155 148 142 139 138 134 128 121 117 112 103 86 67 39 9 349 341 335 329 327 326 325 324 321 319 320 317 319 320 319 317 316
135 133 132 137 145 149 151 151 154 150 148 146 144 141 139 135 126 121 117 112 105 92 60 10 350 338 331 328 328 326 325 323 322 320 318 318 319 317 319 317 313 311 305
145 130 117 124 140 142 143 144 144 148 148 147 143 138 134 130 125 119 113 104 82 41 8 351 340 331 328 326 325 330 329 323 322 320 319 317 316 316 316 313 310 309 301
157 152 138 133 140 141 144 146 148 149 147 142 140 134 130 125 120 111 98 77 37 8 346 334 330 329 328 329 331 327 321 321 320 320 320 320 319 314 311 311 310 310 308
169 147 135 138 144 147 148 148 146 146 148 141 132 130 127 123 112 100 78 38 2 344 337 334 331 329 328 328 323 318 317 318 318 320 319 319 317 314 309 307 306 303 306
164 162 158 155 155 154 153 150 148 146 141 134 131 130 127 119 106 80 23 354 343 336 331 331 330 325 322 323 319 318 314 313 313 316 315 313 311 308 310 313 308 304 306
166 161 157 158 160 157 154 148 146 144 140 137 137 137 135 123 96 17 351 341 331 328 329 324 319 316 315 314 312 313 308 308 308 308 309 308 309 315 311 305 307 311 314
167 162 165 162 162 159 155 150 149 149 149 147 144 140 134 115 5 339 332 328 320 315 313 315 313 311 306 307 305 308 307 304 302 307 310 309 308 309 306 308 305 304 308
153 153 163 163 162 163 160 156 154 155 153 152 148 147 138 346 330 325 323 317 311 309 312 311 307 303 300 301 304 304 304 300 300 307 308 306 302 301 304 300 300 304 308
151 156 161 164 169 166 165 159 156 157 155 153 151 151 306 330 321 312 312 313 314 309 307 305 306 306 304 303 303 300 300 301 302 301 304 309 305 295 295 296 303 304 307
145 153 152 161 164 166 167 157 156 155 156 159 161 165 333 324 316 313 308 303 302 301 303 309 315 315 316 312 309 304 300 298 298 301 303 305 303 292 300 305 304 303 305
141 151 151 154 161 167 172 160 161 165 164 160 165 292 307 307 298 292 297 301 310 309 307 314 313 315 320 319 314 306 304 303 301 300 298 299 303 306 303 304 304 306 308
144 148 147 149 154 162 164 165 159 163 165 181 250 278 291 301 301 305 306 306 307 305 308 310 302 307 308 312 315 311 309 308 303 308 304 299 301 305 303 305 312 312 310
148 152 150 149 150 150 146 155 162 172 181 210 243 276 295 305 308 308 305 302 294 295 299 301 305 305 300 306 305 309 313 312 310 311 313 311 313 309 306 303 303 305 305
150 147 149 151 151 149 156 163 173 184 199 235 271 295 300 303 304 305 304 300 294 293 293 295 295 305 302 302 302 309 309 310 311 316 310 307 301 296 298 301 304 304 302
Height
788 791 797 800 803 806 810 816 820 824 826 830 833 836 837 840 842 843 844 844 844 845 846 846 846 846 845 844 843 843 843 843 841 840 840 839 840 840 840 840 840 840 840
787 787 794 797 799 800 808 812 818 823 826 828 831 835 837 840 842 843 844 844 845 846 847 847 847 847 846 845 845 844 844 844 843 843 843 843 841 840 839 839 839 839 839
781 786 792 796 797 794 797 805 815 820 824 829 831 834 836 839 841 842 843 844 845 846 847 847 848 848 847 846 846 846 845 845 845 845 846 847 848 843 839 839 839 839 838
777 780 785 792 791 794 798 803 810 818 821 826 829 832 833 836 839 841 842 843 845 846 846 847 848 848 848 848 847 847 846 846 846 847 847 848 848 848 845 839 838 838 837
770 773 778 785 791 796 795 802 807 818 820 824 829 831 834 836 837 839 841 843 844 845 846 847 848 848 849 848 848 848 847 847 847 847 847 847 847 847 847 844 837 836 834
765 768 773 780 788 796 799 796 804 815 820 823 826 829 832 835 836 837 840 843 844 845 846 847 848 848 849 849 848 848 848 847 848 848 848 848 848 847 846 845 840 837 830
765 768 771 777 784 791 800 797 799 813 818 822 826 828 831 834 835 837 839 841 843 844 845 846 847 848 848 848 848 848 848 848 848 848 848 847 847 847 845 843 839 835 831
763 767 770 776 783 790 795 799 803 810 817 822 825 826 829 834 835 836 838 841 842 843 845 845 846 847 848 848 848 848 848 848 847 847 846 846 845 844 843 842 840 833 828
766 767 771 776 782 789 795 799 804 811 817 820 823 826 829 834 834 835 838 840 842 843 844 845 846 847 847 848 847 847 847 846 846 845 845 844 843 842 841 839 838 836 828
771 773 776 779 785 791 796 801 806 811 815 819 823 825 830 833 834 836 838 840 842 843 844 845 846 847 847 847 847 846 846 845 844 843 842 841 840 839 838 836 835 833 830
775 778 781 784 788 793 797 802 806 810 815 819 822 826 831 833 835 837 839 840 841 843 844 845 846 846 846 846 845 844 844 843 842 841 839 838 837 835 834 832 830 827 825
778 781 783 786 790 793 797 801 806 810 815 819 823 828 831 833 835 837 839 840 841 843 844 845 845 845 845 844 842 841 840 839 838 837 836 835 833 831 829 827 826 824 822
780 781 783 786 789 793 797 802 806 810 815 820 824 828 831 834 835 837 839 841 842 842 843 843 843 843 842 841 840 839 837 836 834 833 831 829 827 825 823 822 820 818 816
781 783 785 788 791 795 798 802 807 812 817 821 825 828 832 834 836 838 839 841 842 842 842 842 842 841 840 839 838 836 835 833 831 829 827 825 823 820 818 816 814 811 808
786 787 789 792 794 797 801 805 810 814 818 822 826 829 832 835 837 839 840 841 841 841 841 841 840 839 837 836 834 833 832 830 828 826 823 821 818 816 814 812 808 806 802
786 789 791 794 796 799 803 807 812 816 820 823 827 830 833 836 837 839 840 840 840 840 840 839 837 835 834 833 832 831 828 826 824 822 819 816 813 811 809 806 804 802 799
784 788 791 793 797 800 804 809 814 818 821 824 828 831 834 835 837 838 838 839 838 838 837 836 834 833 832 830 829 828 826 823 821 818 816 813 810 808 803 800 798 796 794
780 785 789 794 798 802 807 811 815 818 822 825 828 831 833 834 835 836 836 836 835 835 834 833 832 830 828 827 825 824 822 819 817 815 812 809 806 802 799 794 792 788 786
774 780 786 791 797 802 807 811 815 819 822 825 828 830 832 833 834 834 833 833 832 831 831 829 828 826 824 823 821 819 816 815 813 810 807 804 800 797 795 791 786 782 779
772 778 786 791 796 801 805 810 815 819 822 825 828 829 831 831 832 832 832 832 831 830 829 827 825 823 821 820 817 815 812 810 807 804 801 800 797 793 790 786 782 777 774
772 779 785 790 795 801 805 810 814 819 822 825 827 828 829 830 830 830 830 829 828 827 826 825 823 820 818 815 812 810 808 805 801 798 795 793 791 789 785 781 777 773 768
773 778 785 792 798 803 807 811 815 818 821 824 826 827 828 828 829 828 828 827 826 825 822 820 818 817 814 811 808 805 803 800 796 793 789 787 784 781 779 776 772 768 762
773 779 784 792 798 802 806 810 813 817 819 822 824 825 825 826 826 826 825 824 823 820 818 816 813 812 810 808 805 801 798 795 792 788 784 781 779 776 773 770 765 761 756
774 779 785 792 798 803 806 810 813 816 818 821 823 824 825 825 824 822 820 820 819 817 815 812 810 808 805 803 800 797 793 789 786 782 778 776 775 771 767 763 759 755 752
774 779 785 791 797 802 806 811 812 815 817 819 821 822 822 821 819 817 817 815 815 814 811 809 807 804 801 798 796 794 789 785 782 778 774 771 768 764 760 756 753 749 746
774 780 786 791 797 801 806 809 812 813 815 817 818 818 818 818 817 815 813 813 812 810 807 805 803 799 796 793 791 789 785 781 777 774 771 767 763 760 756 752 748 745 741